{"data":{"norad_id":59579,"epoch":"2026-05-25T02:37:23.674656Z","epoch_age_seconds":68783,"freshness":"FRESH","line1":"1 59579U 24076R   26145.10930179  .00000915  00000+0  42786-4 0  9997","line2":"2 59579  43.0014 297.1092 0000962 268.9566  91.1175 15.27577431118194","mean_motion":15.27577431,"eccentricity":9.62e-5,"inclination_deg":43.0014,"raan_deg":297.1092,"arg_perigee_deg":268.9566,"mean_anomaly_deg":91.1175,"bstar":4.2786e-5,"rev_number":11819,"period_min":94.26690724655,"perigee_km":482.39674171817,"apogee_km":483.71683540309,"semimajor_km":6861.1937885606,"source":"CELESTRAK","updated_at":"2026-05-25T13:38:18.987658Z"}}